Weather History for Elizabethtown, NC

Change the Weather History Date:

Thursday, June 13, 2013

  Actual Average (KILM) Record (KILM)
Temperature  
Mean Temperature 83 °F 77 °F  
Max Temperature 96 °F 87 °F 98 °F (1958)
Min Temperature 70 °F 68 °F 53 °F (1972)
Degree Days  
Heating Degree Days 0 0  
Month to date heating degree days 0  
Since 1 June heating degree days 0  
Since 1 July heating degree days 2409  
Cooling Degree Days 18 12  
Month to date cooling degree days 144  
Year to date cooling degree days 425  
Since 1 June cooling degree days 144  
Growing Degree Days 33 (Base 50)    
Moisture  
Dew Point 71 °F    
Average Humidity 69    
Maximum Humidity 100    
Minimum Humidity 37    
Precipitation  
Precipitation 1.29 in 0.16 in 2.22 in (1973)
Month to date precipitation 2.18  
Year to date precipitation 21.08  
Sea Level Pressure  
Sea Level Pressure 29.78 in    
Wind  
Wind Speed 5 mph (SW)    
Max Wind Speed 17 mph    
Max Gust Speed 36 mph    
Visibility 10 miles    
Events Rain    
T = Trace of Precipitation, MM = Missing Value Source: NWS Daily Summary

Daily Weather History Graph

Daily Weather History Graph

Search for Another Location

Airport:

Trip Planner

Search our weather history database for the weather conditions in past years. The results will help you decide how hot, cold, wet, or windy it might be!

Date:

Astronomy

Jun. 13, 2013 Rise Set
Actual Time 6:00 AM EDT 8:28 PM EDT
Civil Twilight 5:31 AM EDT 8:57 PM EDT
Nautical Twilight 4:55 AM EDT 9:33 PM EDT
Astronomical Twilight 4:15 AM EDT 10:13 PM EDT
Moon 10:26 AM EDT (6/13) 11:44 PM EDT (6/13)
Length of Visible Light 15h 26m
Length of Day
14h 27m
Waxing Crescent, 21% of the Moon is Illuminated
Jun 13
Waxing Crescent
Jun 16
First Quarter
Jun 23
Full
Jun 30
Last Quarter
Jul 8
New

Hourly Weather History & Observations

Time (EDT) Temp. Heat Index Dew Point Humidity Pressure Visibility Wind Dir Wind Speed Gust Speed Precip Events Conditions
12:15 AM 80.2 °F 86.0 °F 76.5 °F 88% 29.89 in 7.0 mi SSW 3.5 mph - N/A   Clear
12:35 AM 79.2 °F - 75.6 °F 89% 29.89 in 7.0 mi SSW 4.6 mph - N/A   Clear
12:55 AM 79.2 °F - 75.2 °F 88% 29.88 in 10.0 mi Calm Calm - N/A   Clear
1:15 AM 78.8 °F - 74.5 °F 87% 29.88 in 10.0 mi Calm Calm - N/A   Clear
1:35 AM 78.8 °F - 74.3 °F 86% 29.88 in 10.0 mi Calm Calm - N/A   Clear
1:55 AM 78.8 °F - 73.9 °F 85% 29.88 in 10.0 mi Calm Calm - N/A   Clear
2:15 AM 77.9 °F - 74.1 °F 88% 29.89 in 10.0 mi Calm Calm - N/A   Clear
2:35 AM 77.0 °F - 73.9 °F 90% 29.88 in 7.0 mi Calm Calm - N/A   Clear
2:55 AM 77.4 °F - 73.9 °F 89% 29.88 in 10.0 mi Calm Calm - N/A   Clear
3:15 AM 77.0 °F - 73.8 °F 90% 29.88 in 10.0 mi Calm Calm - N/A   Clear
3:35 AM 77.0 °F - 73.9 °F 90% 29.88 in 10.0 mi SSW 3.5 mph - N/A   Clear
3:55 AM 77.0 °F - 73.9 °F 90% 29.87 in 10.0 mi SW 3.5 mph - N/A   Clear
4:15 AM 77.0 °F - 73.4 °F 89% 29.87 in 10.0 mi SSW 3.5 mph - N/A   Clear
4:35 AM 77.0 °F - 73.0 °F 88% 29.86 in 10.0 mi SSW 4.6 mph - N/A   Clear
4:55 AM 77.0 °F - 73.0 °F 88% 29.86 in 10.0 mi SSW 4.6 mph - N/A   Clear
5:15 AM 77.0 °F - 73.0 °F 88% 29.85 in 10.0 mi SSW 3.5 mph - N/A   Clear
5:35 AM 77.0 °F - 73.0 °F 88% 29.85 in 10.0 mi SSW 3.5 mph - N/A   Clear
5:55 AM 77.0 °F - 73.0 °F 88% 29.85 in 10.0 mi SSW 4.6 mph - N/A   Clear
6:15 AM 77.0 °F - 73.0 °F 88% 29.85 in 10.0 mi SSW 3.5 mph - N/A   Clear
6:35 AM 77.0 °F - 73.4 °F 89% 29.85 in 10.0 mi SSW 4.6 mph - N/A   Clear
6:55 AM 77.0 °F - 73.0 °F 88% 29.84 in 10.0 mi South 4.6 mph - N/A   Clear
7:15 AM 77.0 °F - 72.9 °F 87% 29.84 in 10.0 mi SSW 4.6 mph - N/A   Clear
7:35 AM 77.5 °F - 73.4 °F 87% 29.84 in 10.0 mi SSW 5.8 mph - N/A   Clear
7:55 AM 78.8 °F - 73.4 °F 83% 29.83 in 10.0 mi SSW 6.9 mph - N/A   Clear
8:15 AM 80.2 °F 85.0 °F 74.1 °F 82% 29.83 in 10.0 mi SSW 6.9 mph - N/A   Clear
8:35 AM 81.0 °F 86.2 °F 73.8 °F 79% 29.82 in 10.0 mi SSW 8.1 mph - N/A   Clear
8:55 AM 82.2 °F 88.0 °F 73.6 °F 75% 29.83 in 10.0 mi SSW 8.1 mph - N/A   Clear
9:15 AM 83.8 °F 90.4 °F 73.6 °F 71% 29.83 in 10.0 mi SW 6.9 mph - N/A   Clear
9:35 AM 85.1 °F 92.6 °F 73.8 °F 69% 29.83 in 10.0 mi SW 8.1 mph - N/A   Clear
9:55 AM 86.2 °F 94.2 °F 73.9 °F 67% 29.83 in 10.0 mi SW 6.9 mph - N/A   Clear
10:15 AM 87.6 °F 96.2 °F 74.3 °F 64% 29.82 in 10.0 mi SSW 6.9 mph - N/A   Clear
10:35 AM 89.1 °F 98.0 °F 74.1 °F 61% 29.81 in 10.0 mi SSW 9.2 mph - N/A   Clear
10:55 AM 90.9 °F 100.6 °F 74.5 °F 58% 29.80 in 10.0 mi SSW 9.2 mph - N/A   Clear
11:15 AM 91.0 °F 99.3 °F 72.9 °F 55% 29.80 in 10.0 mi SW 12.7 mph 17.3 mph N/A   Clear
11:35 AM 91.8 °F 98.6 °F 71.4 °F 51% 29.80 in 10.0 mi SW 12.7 mph 16.1 mph N/A   Clear
11:55 AM 92.7 °F 98.8 °F 70.5 °F 48% 29.79 in 10.0 mi SW 12.7 mph 18.4 mph N/A   Clear
12:15 PM 93.0 °F 99.5 °F 70.5 °F 48% 29.79 in 10.0 mi SW 12.7 mph - N/A   Clear
12:35 PM 94.3 °F 100.4 °F 70.2 °F 45% 29.78 in 10.0 mi SW 11.5 mph 20.7 mph N/A   Clear
12:55 PM 94.6 °F 101.8 °F 70.7 °F 46% 29.77 in 10.0 mi WSW 10.4 mph - N/A   Clear
1:15 PM 94.5 °F 99.6 °F 68.5 °F 43% 29.76 in 10.0 mi SSW 11.5 mph 18.4 mph N/A   Clear
1:35 PM 95.2 °F 99.9 °F 68.4 °F 41% 29.75 in 10.0 mi SW 13.8 mph 19.6 mph N/A   Clear
1:55 PM 95.4 °F 100.8 °F 68.7 °F 42% 29.74 in 10.0 mi SW 6.9 mph - N/A   Clear
2:15 PM 96.1 °F 100.5 °F 67.6 °F 39% 29.73 in 10.0 mi SW 8.1 mph 20.7 mph N/A   Clear
2:35 PM 95.5 °F 100.0 °F 67.6 °F 40% 29.73 in 10.0 mi SW 9.2 mph 17.3 mph N/A   Clear
2:55 PM 96.1 °F 100.5 °F 67.5 °F 39% 29.71 in 10.0 mi SW 10.4 mph 18.4 mph N/A   Clear
3:15 PM 96.1 °F 100.5 °F 67.1 °F 39% 29.71 in 10.0 mi SSW 16.1 mph 20.7 mph N/A   Clear
3:35 PM 96.1 °F 99.3 °F 66.2 °F 37% 29.70 in 10.0 mi SW 6.9 mph 19.6 mph N/A   Clear
3:55 PM 96.1 °F 99.9 °F 66.4 °F 38% 29.70 in 10.0 mi SW 17.3 mph 24.2 mph N/A   Clear
4:15 PM 96.3 °F 100.8 °F 67.5 °F 39% 29.69 in 10.0 mi SW 12.7 mph 17.3 mph N/A   Clear
4:35 PM 96.1 °F 99.9 °F 66.9 °F 38% 29.68 in 10.0 mi SW 12.7 mph 19.6 mph N/A   Clear
4:55 PM 95.2 °F 98.8 °F 66.6 °F 39% 29.68 in 10.0 mi SW 11.5 mph 21.9 mph N/A   Clear
5:15 PM 95.0 °F 99.5 °F 68.0 °F 41% 29.67 in 10.0 mi SW 12.7 mph 19.6 mph N/A   Clear
5:35 PM 94.3 °F 98.7 °F 68.0 °F 42% 29.66 in 10.0 mi SW 12.7 mph 21.9 mph N/A   Clear
5:55 PM 94.3 °F 99.3 °F 68.7 °F 43% 29.66 in 10.0 mi SW 11.5 mph 19.6 mph N/A   Clear
6:15 PM 94.3 °F 100.4 °F 69.8 °F 45% 29.67 in 10.0 mi SW 13.8 mph 18.4 mph N/A   Clear
6:35 PM 93.4 °F 99.2 °F 69.8 °F 46% 29.67 in 10.0 mi WSW 8.1 mph 17.3 mph N/A   Clear
6:55 PM 92.7 °F 98.3 °F 70.0 °F 47% 29.68 in 10.0 mi WSW 6.9 mph 18.4 mph N/A   Clear
7:15 PM 91.8 °F 97.5 °F 70.2 °F 49% 29.68 in 10.0 mi SW 8.1 mph - N/A   Clear
7:35 PM 90.9 °F 97.3 °F 71.2 °F 52% 29.69 in 10.0 mi SW 3.5 mph - N/A   Clear
7:55 PM 89.4 °F 95.8 °F 71.1 °F 55% 29.70 in 10.0 mi Calm Calm - N/A   Scattered Clouds
8:15 PM 85.3 °F 85.7 °F 61.5 °F 45% 29.72 in 10.0 mi WNW 6.9 mph 17.3 mph N/A Rain Rain
8:35 PM 72.3 °F - 68.5 °F 88% 29.71 in 10.0 mi Calm Calm - 0.10 in Rain Light Rain
8:55 PM 74.7 °F - 67.6 °F 79% 29.70 in 10.0 mi Calm Calm - 0.10 in   Scattered Clouds
9:15 PM 74.7 °F - 69.6 °F 84% 29.69 in 10.0 mi Calm Calm - N/A   Scattered Clouds
9:35 PM 73.4 °F - 71.1 °F 92% 29.68 in 10.0 mi Calm Calm - N/A   Scattered Clouds
9:55 PM 71.8 °F - 69.6 °F 93% 29.68 in 10.0 mi Calm Calm - N/A   Scattered Clouds
10:15 PM 72.5 °F - 70.9 °F 95% 29.71 in 10.0 mi Calm Calm - N/A   Mostly Cloudy
10:35 PM 71.1 °F - 68.5 °F 92% 29.76 in 1.0 mi North 3.5 mph 35.7 mph 0.56 in Rain Heavy Rain
10:55 PM 70.9 °F - 70.7 °F 99% 29.75 in 1.0 mi Calm Calm - 1.14 in Rain Heavy Rain
11:15 PM 70.9 °F - 70.9 °F 100% 29.73 in 10.0 mi Calm Calm - 0.03 in Rain Light Rain
11:35 PM 71.2 °F - 71.2 °F 100% 29.73 in 7.0 mi Calm Calm - 0.05 in Rain Rain